Theta_e
313 313 315 317 316 316 317 319 316 315 313 312 313 310 310 310 310 311 311 315 316 315 310 311 312 311 310 308 308 307 314 314 313 315 315 309 311 308 305 308 308 308 309 305 304
313 314 315 315 313 314 317 317 315 313 312 311 309 307 306 306 306 304 308 313 315 310 309 309 309 308 307 307 307 309 312 312 310 310 312 310 308 308 308 307 308 307 306 305 305
310 311 315 312 314 313 317 316 313 312 311 308 307 306 306 307 302 303 307 310 308 308 308 308 308 307 307 305 304 308 312 310 310 308 307 308 306 304 305 308 306 306 304 302 301
314 315 314 313 315 317 318 312 312 311 308 308 307 307 308 307 306 305 305 305 306 308 308 307 306 307 305 306 302 309 305 307 307 305 304 304 303 303 303 305 303 303 301 300 301
314 313 312 312 315 318 312 311 311 308 308 308 307 306 305 301 304 305 305 305 306 308 305 304 304 305 306 303 303 305 304 303 302 301 302 302 303 302 302 301 300 300 300 302 303
314 314 315 317 317 311 311 309 309 310 310 309 307 305 304 301 304 305 305 305 306 306 304 303 303 302 301 301 303 301 301 301 301 302 302 304 303 302 303 302 302 302 303 304 304
316 317 315 311 309 310 310 310 310 307 306 305 305 305 303 302 305 306 306 306 305 305 304 304 303 303 301 301 300 301 303 303 302 303 303 303 304 304 302 301 302 302 303 304 304
316 316 312 310 309 308 307 306 306 305 304 304 304 304 303 305 306 307 307 307 307 305 306 306 305 302 301 301 303 304 303 305 303 304 305 305 306 305 302 302 303 303 304 305 305
311 309 307 307 307 307 306 306 305 304 305 305 305 303 304 306 306 308 307 306 307 307 307 305 302 302 302 304 303 300 305 304 303 308 307 306 310 306 303 304 306 307 307 305 305
307 306 306 306 306 306 307 307 307 307 306 306 305 303 304 304 305 308 308 307 305 304 304 303 302 304 303 302 306 302 308 307 307 307 309 310 310 310 308 307 308 307 305 304 305
307 307 307 307 307 307 307 306 304 305 306 305 304 304 305 307 308 308 308 307 305 304 305 303 306 307 307 304 303 306 309 310 307 308 309 309 310 311 309 307 307 306 305 305 305
307 307 307 307 307 307 307 304 304 305 306 305 306 306 307 307 307 308 308 306 305 306 304 306 308 305 306 308 309 309 310 309 308 307 310 309 311 309 307 307 306 306 306 305 305
305 306 306 306 307 307 306 305 306 305 304 303 306 307 307 308 308 309 307 306 306 306 304 306 307 306 309 311 310 309 310 310 311 309 308 307 311 309 308 307 307 306 305 304 305
305 305 305 305 305 304 304 304 305 305 301 302 306 307 308 307 309 308 309 307 307 309 307 307 306 308 310 312 309 311 308 311 312 312 313 306 318 310 309 308 307 307 305 305 304
305 305 305 305 304 304 305 304 305 302 302 301 306 307 308 308 309 310 309 307 309 309 305 307 307 309 310 311 309 311 310 311 311 309 307 309 312 314 307 310 309 308 307 305 304
305 305 305 305 305 305 306 306 304 302 298 302 306 308 309 308 310 310 310 307 308 306 309 309 307 308 309 309 310 308 307 304 305 308 309 307 309 317 311 311 309 308 307 306 305
305 305 305 305 304 305 307 303 302 300 301 304 308 308 308 308 310 311 310 309 308 303 300 306 311 309 309 309 309 305 299 302 306 309 314 304 308 314 308 307 308 309 307 306 305
304 305 305 304 304 307 304 299 299 304 305 304 307 308 309 308 308 309 308 307 308 305 304 305 304 311 309 309 309 309 303 304 301 307 306 306 310 312 307 305 305 304 306 305 306
304 305 305 305 304 307 299 299 302 304 305 308 309 309 309 308 309 307 309 307 308 306 302 306 305 307 309 310 308 311 310 306 306 303 307 304 304 303 304 306 305 306 307 307 306
304 306 307 307 307 303 301 307 306 303 307 308 307 307 308 307 308 306 307 307 309 308 303 306 303 305 310 309 309 309 306 307 303 304 305 302 301 306 302 309 310 309 307 305 304
306 303 306 305 304 299 302 303 305 305 307 308 307 307 307 307 306 306 306 307 307 308 306 305 305 303 310 310 310 312 311 307 304 305 305 305 309 302 301 304 309 307 306 305 305
301 300 306 305 302 297 303 305 306 307 306 308 307 307 307 306 307 306 306 305 305 306 307 307 304 305 305 305 305 308 308 307 308 303 306 304 308 303 302 302 304 306 305 305 305
299 300 304 303 300 302 305 307 307 307 307 308 308 307 306 307 305 304 305 305 305 305 306 305 302 301 300 302 305 308 307 306 302 302 306 307 306 299 301 303 302 303 301 301 299
297 299 297 296 295 302 306 306 307 306 307 307 307 306 307 306 304 305 305 305 305 306 308 305 301 300 300 299 304 308 307 306 307 307 307 307 305 306 305 304 302 302 301 299 299
296 299 297 299 300 302 302 305 306 306 306 306 306 306 306 305 304 304 304 304 305 308 306 305 307 301 303 303 302 304 304 305 307 309 309 305 306 305 303 303 305 303 300 300 300
301 300 295 297 298 301 299 303 305 305 305 306 307 304 304 304 300 301 303 303 303 306 306 302 306 304 302 303 302 304 303 303 303 305 308 308 308 306 305 302 300 301 299 299 299
299 300 299 299 299 300 300 301 303 303 303 303 304 304 304 303 301 300 298 300 301 304 305 304 305 304 304 302 301 301 300 302 303 302 304 305 305 303 302 301 301 301 301 299 299
Wind_Speed
14 11 14 14 13 13 8 28 21 19 22 19 19 18 20 14 11 13 16 15 13 13 3 3 6 7 8 4 5 2 4 2 3 4 1 3 2 1 1 3 3 2 2 2 1
14 12 17 13 9 12 8 23 21 23 25 24 22 18 21 20 22 22 14 18 14 6 4 3 3 5 4 4 4 4 3 4 3 2 2 1 1 2 2 1 3 2 1 3 10
15 15 17 11 15 15 11 22 24 25 26 21 17 13 7 3 6 6 22 18 9 5 7 6 6 4 5 4 5 2 3 3 1 1 1 2 2 1 1 4 7 4 4 8 11
13 17 17 16 15 18 24 22 25 26 23 15 10 4 3 2 4 12 20 12 9 6 3 6 5 4 5 4 3 5 2 1 2 2 2 3 5 5 6 5 3 5 5 5 6
20 18 15 13 16 28 24 28 25 20 15 12 8 4 3 7 4 14 16 10 7 7 9 4 5 4 5 4 2 4 2 2 1 4 3 4 5 5 8 11 10 8 5 4 6
19 17 20 34 33 27 28 27 20 14 11 9 6 7 7 9 8 14 13 13 13 12 10 8 4 3 6 3 3 2 2 1 1 2 1 3 4 3 4 1 3 2 5 5 7
23 28 32 34 31 31 24 18 15 15 13 15 21 22 17 3 9 11 13 17 15 9 5 7 4 5 4 4 1 2 2 1 5 4 3 3 3 6 5 5 6 6 6 8 11
32 31 32 31 27 24 21 19 16 15 14 9 6 11 6 6 7 14 8 13 13 12 14 7 11 7 5 3 5 4 4 3 2 5 4 4 9 3 5 2 7 10 9 8 9
35 31 26 25 23 21 20 18 16 14 8 4 5 7 3 3 6 12 13 6 7 9 10 8 7 4 5 4 4 6 1 2 7 4 4 2 9 4 2 4 12 14 13 9 8
27 24 22 20 20 22 22 18 22 8 7 7 11 6 6 4 6 8 6 8 6 3 5 8 6 4 4 5 2 1 3 3 4 3 3 5 20 17 12 12 16 13 10 9 7
22 20 17 13 11 6 1 1 6 8 19 5 2 5 1 5 7 11 8 4 5 8 5 5 7 3 1 3 3 4 1 3 4 3 5 4 16 22 15 7 9 9 8 7 7
19 18 19 19 8 3 9 8 2 6 7 8 4 4 3 4 4 15 11 5 6 4 4 6 4 2 1 2 2 2 0 3 5 3 3 6 21 15 5 4 4 5 6 8 5
18 13 10 10 16 28 25 10 6 3 6 5 3 4 3 5 3 8 6 2 5 5 5 5 3 2 1 1 2 0 1 1 4 7 2 9 7 4 1 3 4 6 6 7 9
19 18 16 6 4 7 7 6 3 1 5 10 7 5 3 1 5 3 4 2 6 3 3 5 1 1 1 1 2 3 2 0 4 5 3 5 4 5 3 6 4 7 7 9 9
12 15 14 16 4 5 3 4 2 1 5 6 6 4 3 5 1 8 5 5 4 3 3 1 4 1 1 1 2 2 2 2 1 1 3 0 1 7 3 6 6 5 5 5 5
11 12 10 5 10 5 3 2 2 6 2 5 3 5 3 5 3 3 4 6 2 4 4 2 1 2 1 1 0 2 3 5 3 1 2 1 2 6 4 6 3 3 3 6 6
9 9 10 8 3 4 3 2 5 6 2 2 2 3 2 4 4 5 4 5 3 4 4 4 1 1 1 2 2 6 5 3 5 3 3 2 1 10 5 5 3 3 6 6 6
5 4 7 9 6 3 2 5 8 2 3 2 1 1 4 5 4 4 2 3 2 4 3 3 5 1 1 2 4 2 4 4 4 2 5 2 6 6 4 4 6 6 7 7 8
2 2 3 10 6 1 5 6 7 6 4 5 1 3 3 2 1 3 2 3 3 2 3 2 3 1 2 2 3 2 2 2 5 1 2 3 7 10 5 5 5 8 6 7 7
1 1 3 11 5 2 5 4 2 2 1 1 3 2 4 1 1 1 2 2 3 2 2 4 3 0 1 2 3 1 5 3 2 1 4 5 5 5 5 4 2 3 5 7 7
0 3 4 11 2 5 4 3 3 3 1 1 3 3 2 3 2 1 2 2 4 3 2 3 3 3 1 5 6 2 0 3 3 2 2 3 7 6 5 3 4 6 7 8 9
3 2 5 4 4 2 3 3 2 3 0 1 2 2 3 3 1 2 4 4 5 6 3 2 4 3 6 2 1 2 4 4 3 3 1 1 7 2 5 4 4 7 8 10 9
2 2 4 2 3 2 0 2 2 1 0 1 1 0 1 2 1 4 3 1 6 5 5 5 0 4 4 4 3 3 4 3 3 2 6 4 6 1 2 3 5 8 11 14 11
3 3 4 5 1 5 2 1 2 1 2 2 1 2 1 1 2 1 2 0 4 4 4 5 3 5 6 3 3 4 5 6 5 3 3 10 10 18 17 14 14 15 11 12 12
4 0 2 3 4 2 2 3 2 1 1 0 0 3 4 1 1 3 3 3 1 1 3 3 4 4 6 10 6 11 14 10 13 11 8 1 10 15 10 11 16 14 11 13 13
3 2 2 1 2 1 3 3 4 2 4 2 3 2 5 5 7 4 4 4 5 2 4 2 2 1 5 8 6 9 16 17 18 18 19 25 28 23 21 9 7 11 8 11 12
3 2 2 2 2 2 2 2 2 0 2 2 4 2 3 8 6 7 6 3 4 7 6 4 2 2 5 3 9 9 8 11 5 4 16 12 13 6 11 7 6 8 11 11 11
Wind_Direction
148 136 151 150 161 141 154 144 145 144 132 127 124 129 126 117 123 90 46 352 335 336 10 90 95 78 68 67 43 112 67 120 167 155 187 353 6 141 334 267 322 232 249 163 40
145 127 141 133 139 170 144 141 144 137 131 131 133 125 119 111 85 59 5 351 345 5 78 88 45 50 54 38 24 65 89 178 186 174 202 262 259 302 345 8 266 277 204 248 312
140 136 132 140 136 175 148 139 136 136 135 135 140 137 114 90 60 339 352 354 21 76 79 89 87 67 64 38 1 37 114 168 181 189 286 273 278 328 219 258 221 198 265 312 318
136 140 139 133 143 131 138 138 137 137 130 132 136 121 47 21 87 338 358 8 46 80 97 59 37 59 67 67 336 92 81 73 156 357 321 283 308 289 200 240 194 221 275 287 314
125 127 129 125 123 130 139 137 135 123 121 128 134 128 63 52 46 349 6 25 53 90 61 69 60 104 101 100 79 78 149 80 343 295 284 313 262 252 255 253 268 271 224 224 288
105 103 99 118 128 135 134 130 129 122 125 132 140 107 77 75 347 1 21 57 65 75 64 50 111 118 95 77 72 130 102 286 293 329 49 329 270 16 260 257 301 234 216 288 311
109 107 103 119 126 126 127 123 119 114 111 121 108 89 67 132 17 26 42 49 52 79 85 55 97 70 134 95 142 85 125 67 16 346 352 282 266 230 280 272 289 285 276 302 315
92 102 112 115 120 119 115 110 115 111 107 107 94 82 88 19 32 43 53 58 64 74 81 74 81 96 56 115 29 52 62 10 341 355 7 34 276 263 334 299 278 279 283 300 305
100 102 100 102 104 107 106 102 100 91 101 102 52 89 71 6 18 16 29 28 49 62 59 67 70 79 34 70 28 12 17 1 325 38 337 64 277 235 293 306 284 281 295 298 297
88 86 92 97 96 103 102 97 87 81 56 71 46 63 20 329 336 351 27 32 42 346 22 38 49 71 33 48 225 320 3 320 266 331 352 262 266 279 270 262 268 278 287 288 272
75 75 79 95 100 97 72 198 25 10 36 77 276 99 20 339 42 15 2 357 35 52 43 11 64 79 101 41 103 107 96 279 264 297 320 259 281 288 297 258 265 270 267 260 261
68 65 68 64 39 8 72 72 64 151 72 41 64 68 52 351 18 357 11 62 48 64 338 30 82 195 190 92 102 95 27 294 275 279 279 313 293 290 275 260 223 245 257 252 251
56 46 36 45 58 70 75 74 89 112 86 11 14 39 329 28 59 339 18 59 76 53 14 111 147 145 142 61 39 323 190 313 254 321 233 313 285 313 254 263 259 255 251 257 250
41 34 29 360 47 43 54 46 64 64 80 333 351 7 0 70 44 343 14 100 40 120 76 82 103 117 86 290 112 325 190 312 307 5 295 12 287 290 278 293 265 262 241 252 256
17 16 20 44 77 57 27 37 66 38 66 308 322 316 356 78 245 356 10 27 77 92 86 198 147 162 223 259 182 264 22 332 3 80 348 356 53 270 359 269 251 245 251 261 270
2 10 19 62 59 55 41 69 32 43 257 340 312 348 30 20 31 316 46 51 126 80 34 84 228 182 246 13 144 56 62 39 57 2 8 292 115 276 200 207 200 246 275 296 300
350 10 32 45 57 27 108 60 44 94 279 302 12 12 89 15 25 32 31 23 64 62 356 347 339 291 172 52 25 56 52 337 354 7 232 303 333 250 262 241 227 257 293 298 293
359 17 47 48 29 33 77 55 73 205 213 217 294 63 70 11 31 21 63 36 78 77 92 87 323 190 172 173 176 80 130 141 241 312 289 12 237 251 219 281 276 273 271 289 285
329 26 46 3 354 7 77 56 182 197 168 161 86 84 21 45 79 51 46 191 209 160 125 138 264 281 211 170 127 156 53 162 100 344 316 248 279 286 282 278 261 266 282 282 283
330 50 37 353 349 90 76 132 148 220 153 152 134 181 169 258 118 46 209 193 176 179 146 182 338 218 2 97 38 191 152 56 25 0 298 285 281 243 318 286 243 249 279 292 288
131 52 0 344 36 49 101 177 192 235 220 133 174 129 167 165 160 222 228 234 182 159 100 133 115 281 74 197 183 134 179 61 119 146 201 306 274 214 229 291 303 303 293 283 288
88 45 355 12 48 42 73 136 174 160 37 70 108 107 161 169 189 235 224 231 169 155 143 169 144 259 214 131 106 177 190 163 131 215 188 148 274 275 256 277 298 290 285 286 279
81 260 347 23 84 34 276 64 64 94 335 76 110 149 132 180 200 202 231 334 158 153 167 183 104 337 353 14 9 237 205 159 112 96 201 163 260 166 270 286 257 269 293 298 295
77 22 339 47 76 115 107 75 120 44 118 138 136 105 129 222 222 257 258 268 188 180 154 127 154 193 205 192 143 217 202 198 171 175 197 230 277 275 293 317 316 312 299 293 297
25 100 178 344 4 68 103 147 136 205 69 114 325 220 182 236 247 233 236 292 138 193 77 132 229 191 260 260 237 245 242 209 208 207 217 267 232 272 282 296 301 301 300 309 310
88 97 20 96 307 62 351 206 182 196 163 220 200 185 189 208 202 227 190 207 226 70 148 24 268 97 273 271 258 264 248 232 232 237 247 259 275 284 280 296 292 292 295 306 307
63 98 108 354 17 80 219 166 235 89 187 195 197 138 224 244 237 236 210 212 199 164 179 158 174 26 271 318 300 280 249 186 192 221 222 230 239 282 297 283 273 298 306 296 300